Tracking 29892 objects as of 21-Nov-2024
HD Live streaming from Space Station
objects crossing your sky now

STARLINK-3517

Track STARLINK-3517 now!
10-day predictions
STARLINK-3517 is classified as:


NORAD ID: 51735
Int'l Code: 2022-016X
Perigee: 545.8 km
Apogee: 547.9 km
Inclination: 53.2 °
Period: 95.4 minutes
Semi major axis: 6917 km
RCS: Unknown
Launch date: February 21, 2022
Source: United States (US)
Launch site: AIR FORCE EASTERN TEST RANGE (AFETR)
Your satellite tracking list
Your tracking list is empty




NASA's NSSDC Master Catalog

Two Line Element Set (TLE):
1 51735U 22016X   24325.91049508  .00001124  00000-0  88721-4 0  9992
2 51735  53.2161 285.9928 0001521  97.8693 262.2472 15.08839064153159
Source of the keplerian elements: AFSPC